Time,TemperatureF,DewpointF,PressureIn,WindDirection,WindDirectionDegrees,WindSpeedMPH,WindSpeedGustMPH,Humidity,HourlyPrecipIn,Conditions,Clouds,dailyrainin,SoftwareType,DateUTC
2013-06-15 00:02:00,69.0,55.0,30.01,ENE,61,0.0,0.0,61,0.00,,,0.00,,2013-06-15 04:02:00,
2013-06-15 00:12:00,69.0,55.0,30.01,ENE,61,0.0,0.0,61,0.00,,,0.00,,2013-06-15 04:12:00,
2013-06-15 00:22:00,68.0,54.0,30.00,ENE,61,0.0,0.0,62,0.00,,,0.00,,2013-06-15 04:22:00,
2013-06-15 00:34:00,68.0,54.0,30.00,ENE,61,0.0,0.0,62,0.00,,,0.00,,2013-06-15 04:34:00,
2013-06-15 00:43:00,68.0,54.0,30.00,ENE,61,0.0,0.0,62,0.00,,,0.00,,2013-06-15 04:43:00,
2013-06-15 00:53:00,68.0,54.0,30.00,ENE,61,0.0,0.0,62,0.00,,,0.00,,2013-06-15 04:53:00,
2013-06-15 01:02:00,68.0,55.0,30.00,ENE,61,0.0,0.0,63,0.00,,,0.00,,2013-06-15 05:02:00,
2013-06-15 01:12:00,67.0,55.0,30.01,ENE,61,0.0,0.0,65,0.00,,,0.00,,2013-06-15 05:12:00,
2013-06-15 01:22:00,67.0,55.0,30.01,ENE,61,0.0,0.0,65,0.00,,,0.00,,2013-06-15 05:22:00,
2013-06-15 01:34:00,67.0,55.0,30.01,ENE,61,0.0,0.0,66,0.00,,,0.00,,2013-06-15 05:34:00,
2013-06-15 01:43:00,67.0,55.0,30.00,ENE,61,0.0,0.0,66,0.00,,,0.00,,2013-06-15 05:43:00,
2013-06-15 01:52:00,66.0,55.0,30.00,ENE,61,0.0,0.0,67,0.00,,,0.00,,2013-06-15 05:52:00,
2013-06-15 02:02:00,66.0,56.0,30.00,ENE,61,0.0,0.0,69,0.00,,,0.00,,2013-06-15 06:02:00,
2013-06-15 02:12:00,66.0,56.0,29.99,ENE,61,0.0,0.0,70,0.00,,,0.00,,2013-06-15 06:12:00,
2013-06-15 02:24:00,66.0,56.0,30.00,ENE,61,0.0,0.0,70,0.00,,,0.00,,2013-06-15 06:24:00,
2013-06-15 02:33:00,66.0,57.0,30.00,ENE,61,0.0,0.0,72,0.00,,,0.00,,2013-06-15 06:33:00,
2013-06-15 02:43:00,65.0,56.0,30.01,ENE,61,0.0,0.0,73,0.00,,,0.00,,2013-06-15 06:43:00,
2013-06-15 02:53:00,65.0,57.0,30.00,ENE,61,0.0,0.0,75,0.00,,,0.00,,2013-06-15 06:53:00,
2013-06-15 03:01:00,65.0,57.0,30.01,ENE,61,0.0,0.0,76,0.00,,,0.00,,2013-06-15 07:01:00,
2013-06-15 03:11:00,64.0,56.0,30.00,ENE,61,0.0,0.0,76,0.00,,,0.00,,2013-06-15 07:11:00,
2013-06-15 03:23:00,64.0,56.0,30.01,ENE,61,0.0,0.0,76,0.00,,,0.00,,2013-06-15 07:23:00,
2013-06-15 03:33:00,64.0,57.0,30.01,ENE,61,0.0,0.0,78,0.00,,,0.00,,2013-06-15 07:33:00,
2013-06-15 03:43:00,64.0,57.0,30.03,ENE,61,0.0,0.0,78,0.00,,,0.00,,2013-06-15 07:43:00,
2013-06-15 03:53:00,63.0,56.0,30.03,ENE,61,0.0,0.0,78,0.00,,,0.00,,2013-06-15 07:53:00,
2013-06-15 04:02:00,63.0,56.0,30.03,ENE,61,0.0,0.0,78,0.00,,,0.00,,2013-06-15 08:02:00,
2013-06-15 04:11:00,63.0,56.0,30.04,ENE,61,0.0,0.0,78,0.00,,,0.00,,2013-06-15 08:11:00,
2013-06-15 04:22:00,63.0,56.0,30.04,ENE,61,0.0,0.0,78,0.00,,,0.00,,2013-06-15 08:22:00,
2013-06-15 04:33:00,63.0,56.0,30.04,ENE,61,0.0,0.0,79,0.00,,,0.00,,2013-06-15 08:33:00,
2013-06-15 04:42:00,63.0,56.0,30.03,ENE,61,0.0,0.0,79,0.00,,,0.00,,2013-06-15 08:42:00,
2013-06-15 04:53:00,62.0,56.0,30.03,East,96,0.0,0.0,81,0.00,,,0.00,,2013-06-15 08:53:00,
2013-06-15 05:02:00,62.0,56.0,30.03,East,96,0.0,0.0,82,0.00,,,0.00,,2013-06-15 09:02:00,
2013-06-15 05:12:00,62.0,57.0,30.03,East,96,0.0,0.0,84,0.00,,,0.00,,2013-06-15 09:12:00,
2013-06-15 05:22:00,62.0,57.0,30.02,East,96,0.0,0.0,85,0.00,,,0.00,,2013-06-15 09:22:00,
2013-06-15 05:33:00,62.0,57.0,30.02,East,96,0.0,0.0,85,0.00,,,0.00,,2013-06-15 09:33:00,
2013-06-15 05:43:00,61.0,57.0,30.02,East,96,0.0,0.0,87,0.00,,,0.00,,2013-06-15 09:43:00,
2013-06-15 05:52:00,61.0,57.0,30.02,East,96,0.0,0.0,87,0.00,,,0.00,,2013-06-15 09:52:00,
2013-06-15 06:02:00,61.0,57.0,30.02,East,96,0.0,0.0,87,0.00,,,0.00,,2013-06-15 10:02:00,
2013-06-15 06:11:00,61.0,57.0,30.02,East,96,0.0,0.0,88,0.00,,,0.00,,2013-06-15 10:11:00,
2013-06-15 06:23:00,61.0,57.0,30.03,East,96,0.0,0.0,88,0.00,,,0.00,,2013-06-15 10:23:00,
2013-06-15 06:33:00,61.0,58.0,30.03,East,96,0.0,0.0,90,0.00,,,0.00,,2013-06-15 10:33:00,
2013-06-15 06:44:00,61.0,58.0,30.03,East,96,0.0,0.0,90,0.00,,,0.00,,2013-06-15 10:44:00,
2013-06-15 06:53:00,61.0,58.0,30.04,East,96,0.0,0.0,90,0.00,,,0.00,,2013-06-15 10:53:00,
2013-06-15 07:02:00,61.0,59.0,30.05,East,96,0.0,0.0,92,0.00,,,0.00,,2013-06-15 11:02:00,
2013-06-15 07:12:00,61.0,59.0,30.05,East,96,0.0,0.0,92,0.00,,,0.00,,2013-06-15 11:12:00,
2013-06-15 07:22:00,61.0,59.0,30.06,East,96,0.0,0.0,93,0.00,,,0.00,,2013-06-15 11:22:00,
2013-06-15 07:33:00,61.0,59.0,30.05,East,96,0.0,0.0,93,0.00,,,0.00,,2013-06-15 11:33:00,
2013-06-15 07:43:00,61.0,59.0,30.06,East,96,0.0,0.0,93,0.00,,,0.00,,2013-06-15 11:43:00,
2013-06-15 07:53:00,62.0,60.0,30.06,East,96,0.0,0.0,93,0.00,,,0.00,,2013-06-15 11:53:00,
2013-06-15 08:01:00,63.0,62.0,30.06,East,96,0.0,0.0,95,0.00,,,0.00,,2013-06-15 12:01:00,
2013-06-15 08:12:00,63.0,62.0,30.06,East,96,0.0,0.0,95,0.00,,,0.00,,2013-06-15 12:12:00,
2013-06-15 08:22:00,64.0,63.0,30.06,East,96,0.0,0.0,95,0.00,,,0.00,,2013-06-15 12:22:00,
2013-06-15 08:33:00,64.0,62.0,30.06,East,96,0.0,0.0,93,0.00,,,0.00,,2013-06-15 12:33:00,
2013-06-15 08:43:00,65.0,63.0,30.06,East,96,0.0,0.0,93,0.00,,,0.00,,2013-06-15 12:43:00,
2013-06-15 08:52:00,66.0,64.0,30.06,East,96,0.0,0.0,92,0.00,,,0.00,,2013-06-15 12:52:00,
2013-06-15 09:02:00,67.0,64.0,30.06,SSW,205,1.0,6.0,90,0.00,,,0.00,,2013-06-15 13:02:00,
2013-06-15 09:11:00,68.0,64.0,30.06,South,183,2.0,5.0,87,0.00,,,0.00,,2013-06-15 13:11:00,
2013-06-15 09:22:00,69.0,64.0,30.06,SSW,196,1.0,5.0,85,0.00,,,0.00,,2013-06-15 13:22:00,
2013-06-15 09:32:00,69.0,63.0,30.07,SW,220,0.0,2.0,82,0.00,,,0.00,,2013-06-15 13:32:00,
2013-06-15 09:43:00,70.0,63.0,30.07,South,171,0.0,0.0,78,0.00,,,0.00,,2013-06-15 13:43:00,
2013-06-15 09:53:00,71.0,63.0,30.07,SW,235,1.0,5.0,76,0.00,,,0.00,,2013-06-15 13:53:00,
2013-06-15 10:01:00,72.0,63.0,30.08,South,189,0.0,2.0,73,0.00,,,0.00,,2013-06-15 14:01:00,
2013-06-15 10:12:00,72.0,62.0,30.08,SW,234,0.0,0.0,70,0.00,,,0.00,,2013-06-15 14:12:00,
2013-06-15 10:22:00,73.0,62.0,30.07,SW,234,0.0,0.0,69,0.00,,,0.00,,2013-06-15 14:22:00,
2013-06-15 10:34:00,74.0,62.0,30.07,SW,234,0.0,0.0,66,0.00,,,0.00,,2013-06-15 14:34:00,
2013-06-15 10:43:00,74.0,61.0,30.07,SSE,148,0.0,0.0,63,0.00,,,0.00,,2013-06-15 14:43:00,
2013-06-15 10:53:00,74.0,61.0,30.07,West,264,0.0,3.0,63,0.00,,,0.00,,2013-06-15 14:53:00,
2013-06-15 11:02:00,74.0,60.0,30.06,West,260,0.0,3.0,62,0.00,,,0.00,,2013-06-15 15:02:00,
2013-06-15 11:11:00,75.0,61.0,30.05,SW,236,0.0,0.0,61,0.00,,,0.00,,2013-06-15 15:11:00,
2013-06-15 11:22:00,75.0,61.0,30.05,South,186,0.0,0.0,61,0.00,,,0.00,,2013-06-15 15:22:00,
2013-06-15 11:33:00,76.0,61.0,30.06,West,277,0.0,5.0,59,0.00,,,0.00,,2013-06-15 15:33:00,
2013-06-15 11:43:00,77.0,61.0,30.05,South,176,0.0,0.0,58,0.00,,,0.00,,2013-06-15 15:43:00,
2013-06-15 11:53:00,77.0,60.0,30.05,WNW,298,2.0,3.0,55,0.00,,,0.00,,2013-06-15 15:53:00,
2013-06-15 12:01:00,78.0,61.0,30.04,WSW,243,1.0,6.0,55,0.00,,,0.00,,2013-06-15 16:01:00,
2013-06-15 12:11:00,79.0,61.0,30.03,SW,217,5.0,7.0,54,0.00,,,0.00,,2013-06-15 16:11:00,
2013-06-15 12:22:00,79.0,60.0,30.03,SW,218,5.0,8.0,52,0.00,,,0.00,,2013-06-15 16:22:00,
2013-06-15 12:33:00,80.0,60.0,30.02,South,189,3.0,5.0,50,0.00,,,0.00,,2013-06-15 16:33:00,
2013-06-15 12:43:00,80.0,59.0,30.01,SW,218,2.0,6.0,49,0.00,,,0.00,,2013-06-15 16:43:00,
2013-06-15 12:53:00,80.0,59.0,30.01,SSW,192,2.0,5.0,48,0.00,,,0.00,,2013-06-15 16:53:00,
2013-06-15 13:02:00,80.0,58.0,30.01,ENE,61,0.0,3.0,47,0.00,,,0.00,,2013-06-15 17:02:00,
2013-06-15 13:12:00,80.0,58.0,30.00,SSW,203,2.0,6.0,47,0.00,,,0.00,,2013-06-15 17:12:00,
2013-06-15 13:22:00,80.0,59.0,30.00,South,174,1.0,0.0,48,0.00,,,0.00,,2013-06-15 17:22:00,
2013-06-15 13:32:00,81.0,57.0,30.00,South,185,3.0,7.0,44,0.00,,,0.00,,2013-06-15 17:32:00,
2013-06-15 13:43:00,82.0,57.0,29.99,SSE,161,3.0,5.0,43,0.00,,,0.00,,2013-06-15 17:43:00,
2013-06-15 13:52:00,81.0,56.0,29.98,SSW,210,5.0,8.0,42,0.00,,,0.00,,2013-06-15 17:52:00,
2013-06-15 14:01:00,81.0,56.0,29.98,SSW,210,5.0,8.0,42,0.00,,,0.00,,2013-06-15 18:01:00,
2013-06-15 14:12:00,82.0,56.0,29.98,SSW,209,0.0,3.0,41,0.00,,,0.00,,2013-06-15 18:12:00,
2013-06-15 14:22:00,83.0,57.0,29.98,WSW,243,6.0,7.0,41,0.00,,,0.00,,2013-06-15 18:22:00,
2013-06-15 14:43:00,83.0,55.0,29.98,SW,220,5.0,9.0,38,0.00,,,0.00,,2013-06-15 18:43:00,
2013-06-15 14:53:00,84.0,55.0,29.98,SW,219,3.0,7.0,37,0.00,,,0.00,,2013-06-15 18:53:00,
2013-06-15 15:01:00,85.0,56.0,29.98,SW,222,1.0,3.0,37,0.00,,,0.00,,2013-06-15 19:01:00,
2013-06-15 15:12:00,86.0,55.0,29.98,SSW,208,0.0,7.0,35,0.00,,,0.00,,2013-06-15 19:12:00,
2013-06-15 15:22:00,86.0,55.0,29.98,South,189,0.0,3.0,35,0.00,,,0.00,,2013-06-15 19:22:00,
2013-06-15 15:33:00,86.0,55.0,29.98,SSW,198,3.0,6.0,35,0.00,,,0.00,,2013-06-15 19:33:00,
2013-06-15 15:43:00,86.0,56.0,29.98,SW,229,3.0,7.0,36,0.00,,,0.00,,2013-06-15 19:43:00,
2013-06-15 15:52:00,86.0,54.0,29.98,South,178,3.0,7.0,34,0.00,,,0.00,,2013-06-15 19:52:00,
2013-06-15 16:02:00,86.0,55.0,29.98,SSW,203,1.0,7.0,35,0.00,,,0.00,,2013-06-15 20:02:00,
2013-06-15 16:11:00,87.0,55.0,29.98,SW,215,6.0,9.0,34,0.00,,,0.00,,2013-06-15 20:11:00,
2013-06-15 16:22:00,87.0,55.0,29.98,WSW,253,1.0,7.0,34,0.00,,,0.00,,2013-06-15 20:22:00,
2013-06-15 16:33:00,87.0,54.0,29.98,WSW,239,0.0,0.0,32,0.00,,,0.00,,2013-06-15 20:33:00,
2013-06-15 16:43:00,87.0,55.0,29.98,WSW,249,1.0,6.0,34,0.00,,,0.00,,2013-06-15 20:43:00,
2013-06-15 16:53:00,87.0,54.0,29.98,SSW,206,2.0,7.0,32,0.00,,,0.00,,2013-06-15 20:53:00,
2013-06-15 17:02:00,88.0,54.0,29.98,SW,230,3.0,6.0,32,0.00,,,0.00,,2013-06-15 21:02:00,
2013-06-15 17:12:00,87.0,54.0,29.98,WSW,244,3.0,5.0,32,0.00,,,0.00,,2013-06-15 21:12:00,
2013-06-15 17:22:00,88.0,54.0,29.98,SW,224,3.0,5.0,31,0.00,,,0.00,,2013-06-15 21:22:00,
2013-06-15 17:33:00,88.0,54.0,29.98,SW,230,2.0,5.0,31,0.00,,,0.00,,2013-06-15 21:33:00,
2013-06-15 17:52:00,87.0,54.0,29.97,SW,236,0.0,5.0,32,0.00,,,0.00,,2013-06-15 21:52:00,
2013-06-15 18:01:00,86.0,54.0,29.97,South,186,0.0,0.0,34,0.00,,,0.00,,2013-06-15 22:01:00,
2013-06-15 18:11:00,85.0,54.0,29.97,SW,215,0.0,0.0,35,0.00,,,0.00,,2013-06-15 22:11:00,
2013-06-15 18:22:00,86.0,55.0,29.97,SSW,199,0.0,1.0,35,0.00,,,0.00,,2013-06-15 22:22:00,
2013-06-15 18:33:00,86.0,56.0,29.97,SSW,192,0.0,0.0,36,0.00,,,0.00,,2013-06-15 22:33:00,
2013-06-15 18:42:00,85.0,56.0,29.96,WSW,253,0.0,0.0,37,0.00,,,0.00,,2013-06-15 22:42:00,
2013-06-15 18:53:00,85.0,56.0,29.96,SSW,203,0.0,0.0,37,0.00,,,0.00,,2013-06-15 22:53:00,
2013-06-15 19:02:00,84.0,56.0,29.95,South,186,0.0,3.0,38,0.00,,,0.00,,2013-06-15 23:02:00,
2013-06-15 19:12:00,84.0,56.0,29.95,SSW,203,0.0,0.0,39,0.00,,,0.00,,2013-06-15 23:12:00,
2013-06-15 19:22:00,85.0,57.0,29.94,South,179,0.0,0.0,38,0.00,,,0.00,,2013-06-15 23:22:00,
2013-06-15 19:33:00,84.0,56.0,29.94,SE,145,0.0,0.0,38,0.00,,,0.00,,2013-06-15 23:33:00,
2013-06-15 19:53:00,84.0,56.0,29.93,South,169,0.0,0.0,38,0.00,,,0.00,,2013-06-15 23:53:00,
2013-06-15 20:02:00,84.0,56.0,29.92,SSW,204,1.0,5.0,39,0.00,,,0.00,,2013-06-16 00:02:00,
2013-06-15 20:11:00,84.0,57.0,29.92,SW,234,0.0,0.0,40,0.00,,,0.00,,2013-06-16 00:11:00,
2013-06-15 20:22:00,83.0,57.0,29.91,SW,234,0.0,0.0,41,0.00,,,0.00,,2013-06-16 00:22:00,
2013-06-15 20:34:00,83.0,58.0,29.91,SSE,168,0.0,0.0,42,0.00,,,0.00,,2013-06-16 00:34:00,
2013-06-15 20:43:00,82.0,57.0,29.92,SSE,168,0.0,0.0,43,0.00,,,0.00,,2013-06-16 00:43:00,
2013-06-15 20:52:00,82.0,57.0,29.92,SSE,168,0.0,0.0,43,0.00,,,0.00,,2013-06-16 00:52:00,
2013-06-15 21:01:00,81.0,57.0,29.92,SSE,168,0.0,0.0,44,0.00,,,0.00,,2013-06-16 01:01:00,
2013-06-15 21:11:00,80.0,57.0,29.92,SSE,168,0.0,0.0,46,0.00,,,0.00,,2013-06-16 01:11:00,
2013-06-15 21:22:00,80.0,58.0,29.92,SSE,168,0.0,0.0,47,0.00,,,0.00,,2013-06-16 01:22:00,
2013-06-15 21:33:00,79.0,58.0,29.92,SSE,168,0.0,0.0,48,0.00,,,0.00,,2013-06-16 01:33:00,
2013-06-15 21:42:00,78.0,57.0,29.91,SSE,168,0.0,0.0,48,0.00,,,0.00,,2013-06-16 01:42:00,
2013-06-15 21:53:00,78.0,58.0,29.92,SSE,168,0.0,0.0,50,0.00,,,0.00,,2013-06-16 01:53:00,
2013-06-15 22:02:00,77.0,57.0,29.93,SSE,168,0.0,0.0,51,0.00,,,0.00,,2013-06-16 02:02:00,
2013-06-15 22:12:00,77.0,59.0,29.92,SSE,168,0.0,0.0,53,0.00,,,0.00,,2013-06-16 02:12:00,
2013-06-15 22:22:00,76.0,58.0,29.93,SSE,168,0.0,0.0,54,0.00,,,0.00,,2013-06-16 02:22:00,
2013-06-15 22:33:00,76.0,59.0,29.94,SSW,209,0.0,0.0,55,0.00,,,0.00,,2013-06-16 02:33:00,
2013-06-15 22:43:00,75.0,58.0,29.94,SSW,209,0.0,0.0,55,0.00,,,0.00,,2013-06-16 02:43:00,
2013-06-15 22:53:00,75.0,59.0,29.94,SSW,209,0.0,0.0,57,0.00,,,0.00,,2013-06-16 02:53:00,
2013-06-15 23:02:00,75.0,59.0,29.94,SSW,209,0.0,0.0,57,0.00,,,0.00,,2013-06-16 03:02:00,
2013-06-15 23:12:00,74.0,58.0,29.94,SSW,209,0.0,0.0,57,0.00,,,0.00,,2013-06-16 03:12:00,
2013-06-15 23:22:00,74.0,58.0,29.94,SSW,209,0.0,0.0,58,0.00,,,0.00,,2013-06-16 03:22:00,
2013-06-15 23:33:00,74.0,58.0,29.94,SSW,209,0.0,0.0,58,0.00,,,0.00,,2013-06-16 03:33:00,
2013-06-15 23:43:00,74.0,58.0,29.94,SSW,209,0.0,0.0,58,0.00,,,0.00,,2013-06-16 03:43:00,
2013-06-15 23:53:00,74.0,59.0,29.94,SSW,209,0.0,0.0,59,0.00,,,0.00,,2013-06-16 03:53:00,